カタログに戻る

CARTOSAT-1

運用中科学SSO
NORAD 28649·PAYLOAD·🇮🇳 India

打ち上げ May 5, 2005 から Satish Dhawan Space Centre

Loading…

次のパス (今後24時間)

TLE

最新Source: Space-Track

元期: Sep 13, 2026, 23:47 UTC

1 28649U 05017A   26256.99111116  .00000974  00000-0  10327-3 0  9998
2 28649  97.5292 276.0300 0002551 104.0096 256.1407 14.91238063157056

AllMySatでCARTOSAT-1をリアルタイム追跡

Download on the App Store